カタログに戻る

CZ-6A DEB

運用中SSO
NORAD 54440·DEBRIS·🇨🇳 China

打ち上げ Nov 11, 2022 から Taiyuan Satellite Launch Center

Loading…

次のパス (今後24時間)

TLE

最新Source: Space-Track

元期: Sep 14, 2026, 11:56 UTC

1 54440U 22151FQ  26257.49747634  .00003355  00000-0  82063-3 0  9992
2 54440  98.4800 275.4331 0077504  51.5190 309.2923 14.51391890201885

AllMySatでCZ-6A DEBをリアルタイム追跡

Download on the App Store